Location: Antioch Baptist Church
(32.6696°N, 85.7327°W)
Time: 11:26:46
(UTC+00:00)

Delta 2 Rocket - Pass Details

Date: 14 July 2020
Orbit: 415 x 807 km, 35.6° (Epoch: 09 August)

Event Time Altitude Azimuth Distance (km) Brightness Sun altitude
Rises 01:16:27 0° 285° (WNW) 2,677 8.7 -5.3°
Reaches altitude 10° 01:18:50 10° 280° (W) 1,719 7.3 -5.8°
Maximum altitude 01:22:39 54° 203° (SSW) 574 3.4 -6.5°
Drops below altitude 10° 01:26:05 10° 125° (SE) 1,550 4.9 -7.1°
Enters shadow 01:26:14 - 124° (SE) 1,611 5.0 -7.1°
